Weather History for KHHW - February, 2013

Change the Weather History Date:

Saturday, February 9, 2013

  Actual Average Record
Temperature  
Mean Temperature 43 °F -  
Max Temperature 48 °F 53 °F 71 °F (2015)
Min Temperature 38 °F 31 °F 38 °F (2013)
Degree Days  
Heating Degree Days 22    
Moisture  
Dew Point 38 °F    
Average Humidity 86    
Maximum Humidity 97    
Minimum Humidity 68    
Precipitation  
Precipitation 0.00 in - - ()
Sea Level Pressure  
Sea Level Pressure 30.05 in    
Wind  
Wind Speed 11 mph (ESE)    
Max Wind Speed 16 mph    
Max Gust Speed 22 mph    
Visibility 6 miles    
Events Rain , Thunderstorm    
Averages and records for this station are not official NWS values.
T = Trace of Precipitation, MM = Missing Value Source: NWS Daily Summary

Daily Weather History Graph

Daily Weather History Graph

Search for Another Location

Airport or City:

Trip Planner

Search our weather history database for the weather conditions in past years. The results will help you decide how hot, cold, wet, or windy it might be!

Date:

Astronomy

Feb. 09, 2013 Rise Set
Actual Time 7:12 AM CST 6:00 PM CST
Civil Twilight 6:46 AM CST 6:26 PM CST
Nautical Twilight 6:17 AM CST 6:56 PM CST
Astronomical Twilight 5:47 AM CST 7:25 PM CST
Moon 6:25 AM CST (2/9) 5:42 PM CST (2/9)
Length of Visible Light 11h 40m
Length of Day
10h 48m
Waning Crescent, 0% of the Moon is Illuminated
Feb 9
Waning Crescent
Feb 10
New
Feb 17
First Quarter
Feb 25
Full
Mar 4
Last Quarter

Hourly Weather History & Observations

Time (CST) Temp. Windchill Dew Point Humidity Pressure Visibility Wind Dir Wind Speed Gust Speed Precip Events Conditions
12:15 AM 45.1 °F 39.9 °F 35.1 °F 68% 30.18 in 10.0 mi ESE 10.4 mph - N/A   Clear
12:35 AM 44.8 °F 39.0 °F 35.6 °F 70% 30.15 in 10.0 mi ESE 11.5 mph 18.4 mph N/A   Clear
12:55 AM 43.7 °F 38.1 °F 35.6 °F 73% 30.15 in 10.0 mi ESE 10.4 mph 18.4 mph N/A   Clear
1:15 AM 43.3 °F 37.7 °F 35.8 °F 75% 30.18 in 10.0 mi ESE 10.4 mph - N/A   Clear
1:35 AM 42.4 °F 38.8 °F 35.6 °F 77% 30.18 in 10.0 mi ESE 5.8 mph - N/A   Clear
1:55 AM 42.4 °F 37.0 °F 35.1 °F 75% 30.17 in 10.0 mi ESE 9.2 mph - N/A   Clear
2:15 AM 41.9 °F 35.9 °F 34.9 °F 76% 30.17 in 10.0 mi ESE 10.4 mph 17.3 mph N/A   Clear
2:35 AM 41.2 °F 35.5 °F 34.7 °F 78% 30.17 in 10.0 mi ESE 9.2 mph - N/A   Clear
2:55 AM 41.0 °F 35.8 °F 34.9 °F 79% 30.17 in 10.0 mi ESE 8.1 mph - N/A   Clear
3:15 AM 40.6 °F 35.4 °F 35.1 °F 80% 30.18 in 10.0 mi ESE 8.1 mph - N/A   Clear
3:35 AM 40.1 °F 32.7 °F 35.2 °F 83% 30.17 in 10.0 mi ESE 12.7 mph - N/A   Clear
3:55 AM 39.7 °F 33.2 °F 35.6 °F 85% 30.18 in 10.0 mi ESE 10.4 mph - N/A   Mostly Cloudy
4:15 AM 39.4 °F 32.3 °F 35.6 °F 86% 30.15 in 10.0 mi ESE 11.5 mph 19.6 mph N/A   Scattered Clouds
4:35 AM 39.2 °F 32.5 °F 35.6 °F 87% 30.15 in 10.0 mi ESE 10.4 mph - N/A   Clear
4:55 AM 39.2 °F 30.8 °F 35.2 °F 86% 30.16 in 10.0 mi ESE 15.0 mph 18.4 mph N/A   Clear
5:15 AM 38.7 °F 32.9 °F 35.1 °F 87% 30.17 in 10.0 mi ESE 8.1 mph - N/A   Mostly Cloudy
5:35 AM 38.7 °F 32.9 °F 34.7 °F 86% 30.17 in 10.0 mi ESE 8.1 mph 17.3 mph N/A   Overcast
5:55 AM 38.8 °F 33.8 °F 34.9 °F 86% 30.18 in 10.0 mi ESE 6.9 mph 16.1 mph N/A   Overcast
6:15 AM 38.7 °F 31.4 °F 34.7 °F 86% 30.18 in 7.0 mi ESE 11.5 mph 17.3 mph N/A   Overcast
6:35 AM 38.7 °F 30.1 °F 34.9 °F 86% 30.18 in 7.0 mi ESE 15.0 mph 18.4 mph N/A   Overcast
6:55 AM 38.7 °F 30.1 °F 34.9 °F 86% 30.17 in 7.0 mi ESE 15.0 mph - N/A   Overcast
7:15 AM 38.5 °F 30.3 °F 35.1 °F 87% 30.17 in 7.0 mi ESE 13.8 mph - N/A   Overcast
7:35 AM 38.7 °F 30.9 °F 35.2 °F 87% 30.18 in 5.0 mi ESE 12.7 mph 17.3 mph N/A   Overcast
7:55 AM 38.7 °F 30.1 °F 35.2 °F 87% 30.17 in 5.0 mi ESE 15.0 mph - N/A   Overcast
8:15 AM 38.7 °F 29.8 °F 35.2 °F 87% 30.16 in 5.0 mi ESE 16.1 mph 20.7 mph N/A   Overcast
8:35 AM 38.7 °F 29.8 °F 35.2 °F 87% 30.15 in 5.0 mi ESE 16.1 mph 21.9 mph N/A   Overcast
8:55 AM 39.2 °F 32.0 °F 35.2 °F 86% 30.17 in 5.0 mi ESE 11.5 mph 17.3 mph N/A   Overcast
9:15 AM 39.2 °F 31.2 °F 35.2 °F 86% 30.17 in 5.0 mi ESE 13.8 mph 17.3 mph N/A   Overcast
9:35 AM 39.2 °F 30.5 °F 35.2 °F 86% 30.16 in 5.0 mi ESE 16.1 mph 20.7 mph N/A   Overcast
9:55 AM 38.8 °F 30.0 °F 34.9 °F 86% 30.16 in 5.0 mi ESE 16.1 mph 20.7 mph N/A   Overcast
10:15 AM 38.7 °F 30.5 °F 34.7 °F 86% 30.15 in 5.0 mi ESE 13.8 mph - N/A   Overcast
10:35 AM 39.2 °F 32.5 °F 34.9 °F 84% 30.14 in 5.0 mi ESE 10.4 mph - N/A   Overcast
10:55 AM 39.2 °F 30.5 °F 34.7 °F 84% 30.13 in 5.0 mi ESE 16.1 mph 19.6 mph N/A   Overcast
11:15 AM 39.6 °F 31.0 °F 35.1 °F 84% 30.12 in 5.0 mi ESE 16.1 mph 19.6 mph N/A   Haze
11:35 AM 39.6 °F 32.5 °F 35.2 °F 85% 30.14 in 5.0 mi SE 11.5 mph 21.9 mph N/A   Haze
11:55 AM 39.2 °F 31.2 °F 36.1 °F 89% 30.11 in 4.0 mi ESE 13.8 mph - N/A Rain Rain
12:15 PM 39.2 °F 31.6 °F 36.9 °F 91% 30.09 in 4.0 mi ESE 12.7 mph - N/A Rain Light Rain
12:35 PM 40.3 °F 33.4 °F 37.4 °F 89% 30.07 in 5.0 mi ESE 11.5 mph 20.7 mph N/A   Overcast
12:55 PM 41.2 °F 34.5 °F 37.2 °F 86% 30.07 in 5.0 mi SE 11.5 mph 17.3 mph N/A   Overcast
1:15 PM 42.1 °F 34.5 °F 37.4 °F 83% 30.04 in 7.0 mi ESE 15.0 mph 19.6 mph N/A   Overcast
1:35 PM 43.0 °F 36.0 °F 37.8 °F 82% 30.03 in 7.0 mi SE 13.8 mph 19.6 mph N/A   Overcast
1:55 PM 43.9 °F 37.9 °F 37.8 °F 79% 30.02 in 7.0 mi SE 11.5 mph - N/A   Overcast
2:15 PM 43.7 °F 38.1 °F 37.6 °F 79% 30.02 in 7.0 mi SE 10.4 mph - N/A   Overcast
2:35 PM 44.6 °F 38.4 °F 37.8 °F 77% 30.01 in 10.0 mi ESE 12.7 mph - N/A   Overcast
2:55 PM 44.6 °F 39.7 °F 38.3 °F 79% 30.00 in 7.0 mi SE 9.2 mph - N/A   Overcast
3:15 PM 44.6 °F 38.4 °F 38.3 °F 79% 29.97 in 7.0 mi ESE 12.7 mph - N/A   Overcast
3:35 PM 44.2 °F 38.4 °F 38.1 °F 79% 29.97 in 7.0 mi ESE 11.5 mph - N/A   Overcast
3:55 PM 44.6 °F 40.2 °F 38.3 °F 79% 29.97 in 7.0 mi ESE 8.1 mph - N/A   Overcast
4:15 PM 45.0 °F 38.2 °F 38.8 °F 79% 29.93 in 7.0 mi ESE 15.0 mph - N/A   Overcast
4:35 PM 45.0 °F 37.9 °F 39.0 °F 80% 29.93 in 7.0 mi ESE 16.1 mph - N/A Thunderstorm Overcast
4:55 PM 44.8 °F 39.4 °F 39.2 °F 81% 29.95 in 7.0 mi SE 10.4 mph - N/A Thunderstorm Overcast
5:15 PM 43.9 °F 37.9 °F 40.8 °F 89% 29.93 in 4.0 mi ESE 11.5 mph - N/A Rain Light Rain
5:35 PM 43.3 °F 36.5 °F 41.5 °F 93% 29.92 in 2.5 mi ESE 13.8 mph 18.4 mph N/A Rain Light Rain
5:55 PM 43.2 °F 35.9 °F 41.5 °F 94% 29.91 in 4.0 mi ESE 15.0 mph 21.9 mph N/A Rain Light Rain
6:15 PM 43.2 °F 36.2 °F 41.9 °F 95% 29.91 in 3.0 mi ESE 13.8 mph 17.3 mph N/A Rain Rain
6:35 PM 43.3 °F 35.8 °F 42.1 °F 95% 29.90 in 3.0 mi ESE 16.1 mph 21.9 mph N/A Rain Light Rain
6:55 PM 43.7 °F 37.3 °F 42.3 °F 95% 29.90 in 4.0 mi ESE 12.7 mph 18.4 mph N/A   Overcast
7:35 PM 44.2 °F 38.0 °F 42.8 °F 95% 29.90 in 5.0 mi ESE 12.7 mph 20.7 mph N/A   Overcast
7:55 PM 44.6 °F 38.1 °F 43.0 °F 94% 29.89 in 5.0 mi ESE 13.8 mph - N/A   Overcast
8:15 PM 44.6 °F 38.8 °F 43.3 °F 95% 29.90 in 4.0 mi ESE 11.5 mph 18.4 mph N/A   Overcast
8:35 PM 45.1 °F 40.3 °F 43.9 °F 95% 29.90 in 4.0 mi ESE 9.2 mph - N/A   Overcast
8:55 PM 45.5 °F 39.9 °F 44.1 °F 95% 29.90 in 2.5 mi SE 11.5 mph - N/A   Overcast
9:15 PM 45.7 °F 39.1 °F 44.6 °F 96% 29.89 in 2.0 mi ESE 15.0 mph - N/A   Overcast
9:35 PM 46.0 °F 41.0 °F 45.1 °F 97% 29.88 in 2.0 mi ESE 10.4 mph 18.4 mph N/A   Light Drizzle
9:55 PM 46.8 °F - 45.9 °F 97% 29.88 in 3.0 mi ESE 11.5 mph 16.1 mph N/A   Overcast
10:15 PM 46.8 °F - 45.9 °F 97% 29.87 in 2.5 mi SE 9.2 mph 18.4 mph N/A   Overcast
10:35 PM 47.3 °F - 46.4 °F 97% 29.86 in 2.5 mi ESE 8.1 mph 17.3 mph N/A   Overcast
10:55 PM 47.7 °F - 46.8 °F 97% 29.85 in 3.0 mi SE 9.2 mph 16.1 mph N/A   Overcast
11:15 PM 48.2 °F - 46.9 °F 95% 29.83 in 3.0 mi SE 13.8 mph 19.6 mph N/A   Overcast
11:35 PM 48.2 °F - 47.3 °F 97% 29.83 in 3.0 mi SE 12.7 mph 19.6 mph N/A   Overcast
11:55 PM 48.4 °F - 47.3 °F 96% 29.81 in 3.0 mi ESE 10.4 mph - N/A   Overcast